Location: ?????????
(54.7630°N, 39.4991°E)
Time: 09:31:38
(UTC+00:00)

Cosmos 1821 Rocket - Pass Details

Date: 14 April 2026
Orbit: 945 x 1003 km, 82.9° (Epoch: 19 May)

Event Time Altitude Azimuth Distance (km) Brightness Sun altitude
Exits shadow 18:04:32 - 179° (S) 3,310 6.4 -13.5°
Reaches altitude 10° 18:06:07 10° 177° (S) 2,718 5.9 -13.7°
Maximum altitude 18:12:18 69° 96° (E) 1,052 4.0 -14.4°
Drops below altitude 10° 18:18:37 10° 14° (NNE) 2,774 6.8 -15.0°
Sets 18:21:11 0° 13° (NNE) 3,733 7.5 -15.3°
